,,Stat6,,Stat2,,Stat8,,Stat9,,Stat10,,Wind1,,Wind1,
time,status,PA1M_AVG,status,PR1M_SUM,status,RH1M_AVG,status,SR1M_AVG,status,TA1M_AVG,status,W1dAve1m,status,W1sAve1m,
2003-09-29, 00:00:01,VALID,917.55,VALID,0,VALID,100,VALID,-0.0169808,VALID,19.3654,VALID,294,VALID,0,
2003-09-29, 00:01:00,VALID,917.571,VALID,0,VALID,100,VALID,-0.0509425,VALID,19.3043,VALID,294,VALID,0,
2003-09-29, 00:02:00,VALID,917.561,VALID,0,VALID,100,VALID,-0.0509425,VALID,19.2586,VALID,294,VALID,0,
2003-09-29, 00:03:00,VALID,917.542,VALID,0,VALID,100,VALID,0,VALID,19.2494,VALID,294,VALID,0,
2003-09-29, 00:04:01,VALID,917.515,VALID,0,VALID,100,VALID,-0.0339617,VALID,19.2268,VALID,294,VALID,0.0432413,
2003-09-29, 00:05:01,VALID,917.483,VALID,0,VALID,100,VALID,-0.0339617,VALID,19.2002,VALID,294,VALID,0,
2003-09-29, 00:06:01,VALID,917.441,VALID,0,VALID,100,VALID,-0.0169808,VALID,19.1841,VALID,294,VALID,0,
2003-09-29, 00:07:00,VALID,917.422,VALID,0,VALID,100,VALID,-0.0169808,VALID,19.1682,VALID,294,VALID,0.0372024,
2003-09-29, 00:08:01,VALID,917.402,VALID,0,VALID,100,VALID,-0.0169808,VALID,19.155,VALID,294,VALID,0.344122,
2003-09-29, 00:09:01,VALID,917.384,VALID,0,VALID,100,VALID,0,VALID,19.1423,VALID,339,VALID,0.62686,
2003-09-29, 00:10:00,VALID,917.373,VALID,0,VALID,100,VALID,-0.0339617,VALID,19.1709,VALID,2,VALID,0.772347,
2003-09-29, 00:11:00,VALID,917.378,VALID,0,VALID,100,VALID,-0.0339617,VALID,19.1711,VALID,11,VALID,0.63681,
2003-09-29, 00:12:00,VALID,917.392,VALID,0,VALID,100,VALID,-0.0339617,VALID,19.1749,VALID,354,VALID,0.351199,
2003-09-29, 00:13:00,VALID,917.361,VALID,0,VALID,100,VALID,-0.0169808,VALID,19.2203,VALID,354,VALID,0,
2003-09-29, 00:14:00,VALID,917.343,VALID,0,VALID,100,VALID,0,VALID,19.2427,VALID,354,VALID,0,
2003-09-29, 00:15:01,VALID,917.318,VALID,0,VALID,100,VALID,0,VALID,19.2297,VALID,354,VALID,0,
2003-09-29, 00:16:00,VALID,917.299,VALID,0,VALID,100,VALID,0,VALID,19.2138,VALID,354,VALID,0,
2003-09-29, 00:17:00,VALID,917.274,VALID,0,VALID,100,VALID,-0.0509425,VALID,19.2136,VALID,354,VALID,0.0597747,
2003-09-29, 00:18:00,VALID,917.231,VALID,0,VALID,100,VALID,-0.0849042,VALID,19.2411,VALID,354,VALID,0.125762,
2003-09-29, 00:19:00,VALID,917.19,VALID,0,VALID,100,VALID,-0.118866,VALID,19.264,VALID,354,VALID,0.198847,
2003-09-29, 00:20:00,VALID,917.145,VALID,0,VALID,100,VALID,-0.118866,VALID,19.2543,VALID,354,VALID,0.385069,
2003-09-29, 00:21:00,VALID,917.109,VALID,0,VALID,100,VALID,-0.101885,VALID,19.2059,VALID,356,VALID,0.588118,
2003-09-29, 00:22:00,VALID,917.076,VALID,0,VALID,100,VALID,-0.118866,VALID,19.2056,VALID,5,VALID,0.718023,
2003-09-29, 00:23:00,VALID,917.064,VALID,0,VALID,100,VALID,-0.118866,VALID,19.2024,VALID,10,VALID,0.704649,
2003-09-29, 00:24:01,VALID,917.05,VALID,0,VALID,100,VALID,-0.118866,VALID,19.2188,VALID,19,VALID,1.09051,
2003-09-29, 00:25:00,VALID,917.049,VALID,0,VALID,100,VALID,-0.101885,VALID,19.2317,VALID,26,VALID,1.25743,
2003-09-29, 00:26:01,VALID,917.043,VALID,0,VALID,100,VALID,-0.101885,VALID,19.2483,VALID,24,VALID,1.31758,
2003-09-29, 00:27:01,VALID,917.026,VALID,0,VALID,100,VALID,-0.118866,VALID,19.2831,VALID,26,VALID,1.18341,
2003-09-29, 00:28:00,VALID,917.012,VALID,0,VALID,100,VALID,-0.118866,VALID,19.3094,VALID,12,VALID,1.3609,
2003-09-29, 00:29:00,VALID,916.997,VALID,0,VALID,100,VALID,-0.135847,VALID,19.3191,VALID,16,VALID,1.17243,
2003-09-29, 00:30:00,VALID,916.981,VALID,0,VALID,100,VALID,-0.101885,VALID,19.3159,VALID,12,VALID,1.28976,
2003-09-29, 00:31:01,VALID,916.988,VALID,0,VALID,100,VALID,-0.118866,VALID,19.2928,VALID,9,VALID,0.820313,
2003-09-29, 00:32:01,VALID,916.974,VALID,0,VALID,100,VALID,-0.101885,VALID,19.2704,VALID,22,VALID,0.823742,
2003-09-29, 00:33:00,VALID,916.993,VALID,0,VALID,100,VALID,-0.0339617,VALID,19.2397,VALID,31,VALID,0.861281,
2003-09-29, 00:34:00,VALID,916.995,VALID,0,VALID,100,VALID,0,VALID,19.2367,VALID,35,VALID,0.683036,
2003-09-29, 00:35:00,VALID,917.003,VALID,0,VALID,100,VALID,-0.0339617,VALID,19.2205,VALID,54,VALID,0.994731,
2003-09-29, 00:36:00,VALID,917.017,VALID,0,VALID,100,VALID,0,VALID,19.2046,VALID,36,VALID,0.882631,
2003-09-29, 00:37:00,VALID,917.015,VALID,0,VALID,100,VALID,-0.0169808,VALID,19.1878,VALID,39,VALID,1.117,
2003-09-29, 00:38:01,VALID,917.014,VALID,0,VALID,100,VALID,-0.0169808,VALID,19.1493,VALID,24,VALID,1.80041,
2003-09-29, 00:39:01,VALID,917.015,VALID,0,VALID,100,VALID,0,VALID,19.114,VALID,18,VALID,1.41637,
2003-09-29, 00:40:01,VALID,917.013,VALID,0,VALID,100,VALID,0,VALID,19.107,VALID,359,VALID,0.762386,
2003-09-29, 00:41:01,VALID,917.004,VALID,0,VALID,100,VALID,0,VALID,19.0974,VALID,358,VALID,0.59032,
2003-09-29, 00:42:00,VALID,916.963,VALID,0,VALID,100,VALID,0,VALID,19.0752,VALID,2,VALID,0.666159,
2003-09-29, 00:43:01,VALID,916.933,VALID,0,VALID,100,VALID,0.0169808,VALID,19.0782,VALID,10,VALID,0.525868,
2003-09-29, 00:44:01,VALID,916.887,VALID,0,VALID,100,VALID,0,VALID,19.0782,VALID,13,VALID,0.61942,
2003-09-29, 00:45:01,VALID,916.851,VALID,0,VALID,100,VALID,0,VALID,19.0559,VALID,17,VALID,0.381722,
2003-09-29, 00:46:01,VALID,916.833,VALID,0,VALID,100,VALID,0.0169808,VALID,19.0392,VALID,6,VALID,0.332775,
2003-09-29, 00:47:01,VALID,916.816,VALID,0,VALID,100,VALID,0,VALID,19.0291,VALID,352,VALID,0.401563,
2003-09-29, 00:48:00,VALID,916.816,VALID,0,VALID,100,VALID,-0.0679233,VALID,19.0407,VALID,360,VALID,0.423209,
2003-09-29, 00:49:01,VALID,916.806,VALID,0,VALID,100,VALID,-0.101885,VALID,19.0211,VALID,360,VALID,0.19122,
2003-09-29, 00:50:01,VALID,916.802,VALID,0,VALID,100,VALID,-0.118866,VALID,19.0218,VALID,359,VALID,0.229887,
2003-09-29, 00:51:01,VALID,916.791,VALID,0,VALID,100,VALID,-0.118866,VALID,19.0345,VALID,327,VALID,0.365625,
2003-09-29, 00:52:01,VALID,916.788,VALID,0,VALID,100,VALID,-0.0849042,VALID,19.0374,VALID,327,VALID,0.530185,
2003-09-29, 00:53:01,VALID,916.76,VALID,0,VALID,100,VALID,-0.101885,VALID,19.0732,VALID,350,VALID,0.772485,
2003-09-29, 00:54:01,VALID,916.748,VALID,0,VALID,100,VALID,-0.101885,VALID,19.0697,VALID,6,VALID,1.16886,
2003-09-29, 00:55:00,VALID,916.735,VALID,0,VALID,100,VALID,-0.101885,VALID,19.0642,VALID,7,VALID,0.757999,
2003-09-29, 00:56:00,VALID,916.733,VALID,0,VALID,100,VALID,-0.135847,VALID,19.0538,VALID,2,VALID,0.785342,
2003-09-29, 00:57:01,VALID,916.727,VALID,0,VALID,100,VALID,-0.101885,VALID,19.0571,VALID,355,VALID,0.779535,
2003-09-29, 00:58:00,VALID,916.739,VALID,0,VALID,100,VALID,-0.118866,VALID,19.0705,VALID,314,VALID,0.339944,
2003-09-29, 00:59:00,VALID,916.761,VALID,0,VALID,100,VALID,-0.101885,VALID,19.0799,VALID,18,VALID,0.322173,
2003-09-29, 01:00:01,VALID,916.792,VALID,0,VALID,100,VALID,-0.135847,VALID,19.0898,VALID,18,VALID,0.291406,
2003-09-29, 01:01:01,VALID,916.817,VALID,0,VALID,100,VALID,-0.118866,VALID,19.0894,VALID,44,VALID,0.481027,
2003-09-29, 01:02:00,VALID,916.852,VALID,0,VALID,100,VALID,-0.118866,VALID,19.1099,VALID,74,VALID,0.591332,
2003-09-29, 01:03:01,VALID,916.878,VALID,0,VALID,100,VALID,-0.0169808,VALID,19.0852,VALID,118,VALID,1.0973,
2003-09-29, 01:04:01,VALID,916.896,VALID,0,VALID,100,VALID,0,VALID,19.0522,VALID,130,VALID,1.26596,
2003-09-29, 01:05:01,VALID,916.884,VALID,0,VALID,100,VALID,0,VALID,19.0492,VALID,125,VALID,1.1885,
2003-09-29, 01:06:01,VALID,916.871,VALID,0,VALID,100,VALID,-0.0169808,VALID,19.0563,VALID,119,VALID,0.895089,
2003-09-29, 01:07:01,VALID,916.849,VALID,0,VALID,100,VALID,0,VALID,19.0489,VALID,131,VALID,0.637386,
2003-09-29, 01:08:01,VALID,916.838,VALID,0,VALID,100,VALID,0.0169808,VALID,19.0556,VALID,131,VALID,0.812119,
2003-09-29, 01:09:01,VALID,916.825,VALID,0,VALID,100,VALID,0,VALID,19.0725,VALID,138,VALID,0.7502,
2003-09-29, 01:10:01,VALID,916.813,VALID,0,VALID,100,VALID,-0.0169808,VALID,19.0879,VALID,139,VALID,0.676669,
2003-09-29, 01:11:01,VALID,916.818,VALID,0,VALID,100,VALID,-0.0339617,VALID,19.1011,VALID,135,VALID,0.526563,
2003-09-29, 01:12:01,VALID,916.82,VALID,0,VALID,100,VALID,-0.0339617,VALID,19.1239,VALID,120,VALID,0.461301,
2003-09-29, 01:13:01,VALID,916.833,VALID,0,VALID,100,VALID,0,VALID,19.1304,VALID,92,VALID,0.366425,
2003-09-29, 01:14:01,VALID,916.826,VALID,0,VALID,100,VALID,-0.0169808,VALID,19.1493,VALID,65,VALID,0.433416,
2003-09-29, 01:15:01,VALID,916.843,VALID,0,VALID,100,VALID,-0.0169808,VALID,19.1396,VALID,61,VALID,0.587028,
2003-09-29, 01:16:01,VALID,916.83,VALID,0,VALID,100,VALID,-0.0169808,VALID,19.1654,VALID,50,VALID,0.221475,
2003-09-29, 01:17:01,VALID,916.822,VALID,0,VALID,100,VALID,0,VALID,19.1691,VALID,49,VALID,0.0340402,
2003-09-29, 01:18:01,VALID,916.808,VALID,0,VALID,100,VALID,-0.0679233,VALID,19.1689,VALID,49,VALID,0,
2003-09-29, 01:19:01,VALID,916.806,VALID,0,VALID,100,VALID,-0.0679233,VALID,19.1756,VALID,50,VALID,0,
2003-09-29, 01:20:01,VALID,916.783,VALID,0,VALID,100,VALID,-0.0169808,VALID,19.1818,VALID,49,VALID,0.0181641,
2003-09-29, 01:21:01,VALID,916.776,VALID,0,VALID,100,VALID,-0.0169808,VALID,19.1853,VALID,163,VALID,0.345567,
2003-09-29, 01:22:01,VALID,916.766,VALID,0,VALID,100,VALID,-0.0509425,VALID,19.185,VALID,181,VALID,0.613186,
2003-09-29, 01:23:00,VALID,916.741,VALID,0,VALID,100,VALID,-0.0169808,VALID,19.1811,VALID,160,VALID,0.838021,
2003-09-29, 01:24:00,VALID,916.724,VALID,0,VALID,100,VALID,-0.0509425,VALID,19.1746,VALID,141,VALID,0.675366,
2003-09-29, 01:25:00,VALID,916.694,VALID,0,VALID,100,VALID,-0.0509425,VALID,19.1786,VALID,122,VALID,0.89226,
2003-09-29, 01:26:00,VALID,916.685,VALID,0,VALID,100,VALID,-0.0509425,VALID,19.1952,VALID,124,VALID,1.10584,
2003-09-29, 01:27:00,VALID,916.683,VALID,0,VALID,100,VALID,-0.0509425,VALID,19.1786,VALID,107,VALID,1.09245,
2003-09-29, 01:28:00,VALID,916.675,VALID,0,VALID,100,VALID,-0.0509425,VALID,19.1689,VALID,114,VALID,1.20126,
2003-09-29, 01:29:00,VALID,916.682,VALID,0,VALID,100,VALID,-0.0509425,VALID,19.1564,VALID,115,VALID,1.1635,
2003-09-29, 01:30:00,VALID,916.691,VALID,0,VALID,100,VALID,-0.0679233,VALID,19.1495,VALID,126,VALID,1.27572,
2003-09-29, 01:31:00,VALID,916.696,VALID,0,VALID,100,VALID,-0.0509425,VALID,19.1592,VALID,127,VALID,1.25994,
2003-09-29, 01:32:00,VALID,916.7,VALID,0,VALID,100,VALID,-0.0339617,VALID,19.1587,VALID,157,VALID,0.638529,
2003-09-29, 01:33:00,VALID,916.695,VALID,0,VALID,100,VALID,-0.0849042,VALID,19.156,VALID,172,VALID,0.59593,
2003-09-29, 01:34:00,VALID,916.69,VALID,0,VALID,100,VALID,-0.0509425,VALID,19.1361,VALID,149,VALID,0.922266,
2003-09-29, 01:35:00,VALID,916.687,VALID,0,VALID,100,VALID,0,VALID,19.1267,VALID,152,VALID,1.06436,
2003-09-29, 01:36:00,VALID,916.679,VALID,0,VALID,100,VALID,-0.0339617,VALID,19.1495,VALID,131,VALID,0.940696,
2003-09-29, 01:37:00,VALID,916.648,VALID,0,VALID,100,VALID,0,VALID,19.1458,VALID,107,VALID,1.04386,
2003-09-29, 01:38:00,VALID,916.649,VALID,0,VALID,100,VALID,-0.0169808,VALID,19.1659,VALID,120,VALID,0.920486,
2003-09-29, 01:39:00,VALID,916.636,VALID,0,VALID,100,VALID,-0.0339617,VALID,19.1689,VALID,117,VALID,1.07986,
2003-09-29, 01:40:00,VALID,916.599,VALID,0,VALID,100,VALID,0,VALID,19.1622,VALID,113,VALID,1.46735,
2003-09-29, 01:41:00,VALID,916.585,VALID,0,VALID,100,VALID,-0.0169808,VALID,19.1781,VALID,121,VALID,1.42511,
2003-09-29, 01:42:00,VALID,916.543,VALID,0,VALID,100,VALID,0,VALID,19.1845,VALID,130,VALID,1.27961,
2003-09-29, 01:43:00,VALID,916.533,VALID,0,VALID,100,VALID,0,VALID,19.188,VALID,80,VALID,0.657203,
2003-09-29, 01:44:00,VALID,916.506,VALID,0,VALID,100,VALID,-0.0169808,VALID,19.1853,VALID,36,VALID,0.762355,
2003-09-29, 01:45:00,VALID,916.473,VALID,0,VALID,100,VALID,-0.0509425,VALID,19.1657,VALID,70,VALID,0.873828,
2003-09-29, 01:46:00,VALID,916.473,VALID,0,VALID,100,VALID,-0.0509425,VALID,19.149,VALID,88,VALID,0.838281,
2003-09-29, 01:47:00,VALID,916.476,VALID,0,VALID,100,VALID,-0.0339617,VALID,19.1428,VALID,59,VALID,0.618521,
2003-09-29, 01:48:00,VALID,916.498,VALID,0,VALID,100,VALID,-0.0679233,VALID,19.1267,VALID,62,VALID,0.977778,
2003-09-29, 01:49:00,VALID,916.52,VALID,0,VALID,100,VALID,-0.0679233,VALID,19.114,VALID,75,VALID,0.924893,
2003-09-29, 01:50:00,VALID,916.545,VALID,0,VALID,100,VALID,-0.0169808,VALID,19.1078,VALID,94,VALID,0.972656,
2003-09-29, 01:51:00,VALID,916.548,VALID,0,VALID,100,VALID,-0.0509425,VALID,19.108,VALID,100,VALID,1.08785,
2003-09-29, 01:52:00,VALID,916.545,VALID,0,VALID,100,VALID,-0.0509425,VALID,19.1246,VALID,104,VALID,1.09449,
2003-09-29, 01:53:00,VALID,916.541,VALID,0,VALID,100,VALID,-0.0679233,VALID,19.1242,VALID,109,VALID,0.970312,
2003-09-29, 01:54:00,VALID,916.53,VALID,0,VALID,100,VALID,-0.0679233,VALID,19.1108,VALID,122,VALID,0.922602,
2003-09-29, 01:55:00,VALID,916.52,VALID,0,VALID,100,VALID,-0.0339617,VALID,19.1011,VALID,138,VALID,0.794744,
2003-09-29, 01:56:00,VALID,916.506,VALID,0,VALID,100,VALID,-0.0509425,VALID,19.0879,VALID,150,VALID,0.700817,
2003-09-29, 01:57:00,VALID,916.485,VALID,0,VALID,100,VALID,-0.0509425,VALID,19.0916,VALID,160,VALID,0.543501,
2003-09-29, 01:58:00,VALID,916.481,VALID,0,VALID,100,VALID,-0.0339617,VALID,19.0879,VALID,180,VALID,0.326308,
2003-09-29, 01:59:00,VALID,916.461,VALID,0,VALID,100,VALID,-0.0169808,VALID,19.0748,VALID,183,VALID,0.150347,
2003-09-29, 02:00:00,VALID,916.433,VALID,0,VALID,100,VALID,-0.0849042,VALID,19.0651,VALID,183,VALID,0.000372024,
2003-09-29, 02:01:00,VALID,916.399,VALID,0,VALID,100,VALID,-0.0339617,VALID,19.0591,VALID,166,VALID,0.497332,
2003-09-29, 02:02:00,VALID,916.382,VALID,0,VALID,100,VALID,-0.0339617,VALID,19.0755,VALID,173,VALID,0.470022,
2003-09-29, 02:03:00,VALID,916.37,VALID,0,VALID,100,VALID,-0.0169808,VALID,19.0656,VALID,174,VALID,0.295573,
2003-09-29, 02:04:00,VALID,916.362,VALID,0,VALID,100,VALID,-0.0339617,VALID,19.0524,VALID,178,VALID,0.179324,
2003-09-29, 02:05:00,VALID,916.354,VALID,0,VALID,100,VALID,-0.0509425,VALID,19.0464,VALID,179,VALID,0.223047,
2003-09-29, 02:06:00,VALID,916.336,VALID,0,VALID,100,VALID,-0.0169808,VALID,19.0201,VALID,179,VALID,0.0634301,
2003-09-29, 02:07:00,VALID,916.315,VALID,0,VALID,100,VALID,-0.0169808,VALID,19.0007,VALID,179,VALID,0.0828887,
2003-09-29, 02:08:00,VALID,916.298,VALID,0,VALID,100,VALID,-0.0169808,VALID,18.9977,VALID,179,VALID,0.150981,
2003-09-29, 02:09:00,VALID,916.265,VALID,0,VALID,100,VALID,-0.0169808,VALID,18.9659,VALID,179,VALID,0.196615,
2003-09-29, 02:10:00,VALID,916.245,VALID,0,VALID,100,VALID,-0.0339617,VALID,18.9463,VALID,179,VALID,0.0920516,
2003-09-29, 02:11:00,VALID,916.222,VALID,0,VALID,100,VALID,-0.0339617,VALID,18.9466,VALID,179,VALID,0.000355114,
2003-09-29, 02:12:00,VALID,916.192,VALID,0,VALID,100,VALID,-0.0169808,VALID,18.9242,VALID,281,VALID,0.392805,
2003-09-29, 02:13:00,VALID,916.165,VALID,0,VALID,100,VALID,-0.0339617,VALID,18.9687,VALID,286,VALID,0.311111,
2003-09-29, 02:14:00,VALID,916.153,VALID,0,VALID,100,VALID,-0.0679233,VALID,18.9885,VALID,286,VALID,0.160633,
2003-09-29, 02:15:00,VALID,916.145,VALID,0,VALID,100,VALID,-0.0169808,VALID,18.9846,VALID,286,VALID,0,
2003-09-29, 02:16:00,VALID,916.135,VALID,0,VALID,100,VALID,0,VALID,18.9652,VALID,286,VALID,0,
2003-09-29, 02:17:00,VALID,916.124,VALID,0,VALID,100,VALID,0,VALID,18.9659,VALID,286,VALID,0,
2003-09-29, 02:18:00,VALID,916.134,VALID,0,VALID,100,VALID,-0.0169808,VALID,18.8947,VALID,286,VALID,0.325238,
2003-09-29, 02:19:00,VALID,916.133,VALID,0,VALID,100,VALID,-0.0169808,VALID,18.9046,VALID,286,VALID,0.217988,
2003-09-29, 02:20:00,VALID,916.127,VALID,0,VALID,100,VALID,0,VALID,18.9235,VALID,286,VALID,0.145241,
2003-09-29, 02:21:00,VALID,916.123,VALID,0,VALID,100,VALID,0.0169808,VALID,18.9399,VALID,286,VALID,0,
2003-09-29, 02:22:00,VALID,916.128,VALID,0,VALID,100,VALID,-0.0679233,VALID,18.9498,VALID,286,VALID,0,
2003-09-29, 02:23:00,VALID,916.124,VALID,0,VALID,100,VALID,-0.0169808,VALID,18.9369,VALID,286,VALID,0,
2003-09-29, 02:24:00,VALID,916.134,VALID,0,VALID,100,VALID,0,VALID,18.9304,VALID,286,VALID,0,
2003-09-29, 02:25:00,VALID,916.146,VALID,0,VALID,100,VALID,-0.0339617,VALID,18.908,VALID,318,VALID,0.170015,
2003-09-29, 02:26:00,VALID,916.154,VALID,0,VALID,100,VALID,-0.0339617,VALID,18.8587,VALID,54,VALID,0.499151,
2003-09-29, 02:27:00,VALID,916.161,VALID,0,VALID,100,VALID,0,VALID,18.8497,VALID,54,VALID,0.489099,
2003-09-29, 02:28:00,VALID,916.158,VALID,0,VALID,100,VALID,0,VALID,18.8721,VALID,54,VALID,0.389172,
2003-09-29, 02:29:00,VALID,916.154,VALID,0,VALID,100,VALID,-0.0169808,VALID,18.8718,VALID,54,VALID,0.156441,
2003-09-29, 02:30:00,VALID,916.164,VALID,0,VALID,100,VALID,-0.0339617,VALID,18.879,VALID,54,VALID,0.00967262,
2003-09-29, 02:31:00,VALID,916.183,VALID,0,VALID,100,VALID,0,VALID,18.8688,VALID,54,VALID,0,
2003-09-29, 02:32:00,VALID,916.206,VALID,0,VALID,100,VALID,0,VALID,18.8561,VALID,54,VALID,0,
2003-09-29, 02:33:00,VALID,916.221,VALID,0,VALID,100,VALID,0.0169808,VALID,18.8465,VALID,54,VALID,0.355469,
2003-09-29, 02:34:00,VALID,916.241,VALID,0,VALID,100,VALID,-0.0679233,VALID,18.8271,VALID,67,VALID,0.54154,
2003-09-29, 02:35:00,VALID,916.274,VALID,0,VALID,100,VALID,-0.0169808,VALID,18.8365,VALID,77,VALID,0.537891,
2003-09-29, 02:36:00,VALID,916.295,VALID,0,VALID,100,VALID,-0.0509425,VALID,18.8402,VALID,76,VALID,0.699298,
2003-09-29, 02:37:00,VALID,916.32,VALID,0,VALID,100,VALID,0,VALID,18.8368,VALID,74,VALID,0.9871,
2003-09-29, 02:38:00,VALID,916.335,VALID,0,VALID,100,VALID,-0.0339617,VALID,18.8591,VALID,71,VALID,1.07292,
2003-09-29, 02:39:00,VALID,916.342,VALID,0,VALID,100,VALID,0,VALID,18.8723,VALID,68,VALID,0.936228,
2003-09-29, 02:40:00,VALID,916.364,VALID,0,VALID,100,VALID,-0.0509425,VALID,18.8949,VALID,77,VALID,0.882068,
2003-09-29, 02:41:00,VALID,916.368,VALID,0,VALID,100,VALID,-0.0169808,VALID,18.9145,VALID,67,VALID,0.732279,
2003-09-29, 02:42:00,VALID,916.35,VALID,0,VALID,100,VALID,-0.0339617,VALID,18.9048,VALID,62,VALID,0.502841,
2003-09-29, 02:43:00,VALID,916.338,VALID,0,VALID,100,VALID,-0.0169808,VALID,18.9272,VALID,56,VALID,0.529726,
2003-09-29, 02:44:00,VALID,916.303,VALID,0,VALID,100,VALID,-0.0169808,VALID,18.9692,VALID,46,VALID,0.422569,
2003-09-29, 02:45:00,VALID,916.258,VALID,0,VALID,100,VALID,-0.0339617,VALID,18.9655,VALID,44,VALID,0.048473,
2003-09-29, 02:46:00,VALID,916.219,VALID,0,VALID,100,VALID,0,VALID,18.9818,VALID,6,VALID,0.407703,
2003-09-29, 02:47:00,VALID,916.176,VALID,0,VALID,100,VALID,-0.0509425,VALID,19.037,VALID,300,VALID,0.462426,
2003-09-29, 02:48:00,VALID,916.146,VALID,0,VALID,100,VALID,-0.0509425,VALID,19.0697,VALID,298,VALID,0.23971,
2003-09-29, 02:49:00,VALID,916.111,VALID,0,VALID,100,VALID,-0.0339617,VALID,19.0374,VALID,291,VALID,0.383575,
2003-09-29, 02:50:00,VALID,916.097,VALID,0,VALID,100,VALID,-0.0339617,VALID,19.0241,VALID,255,VALID,0.482244,
2003-09-29, 02:51:00,VALID,916.086,VALID,0,VALID,100,VALID,0,VALID,19.037,VALID,255,VALID,0.272529,
2003-09-29, 02:52:00,VALID,916.095,VALID,0,VALID,100,VALID,-0.0509425,VALID,19.0437,VALID,255,VALID,0.264101,
2003-09-29, 02:53:00,VALID,916.104,VALID,0,VALID,100,VALID,-0.0169808,VALID,19.0365,VALID,268,VALID,0.312309,
2003-09-29, 02:54:00,VALID,916.142,VALID,0,VALID,100,VALID,-0.0169808,VALID,19.0427,VALID,359,VALID,0.329688,
2003-09-29, 02:55:00,VALID,916.168,VALID,0,VALID,100,VALID,-0.0339617,VALID,19.0526,VALID,12,VALID,0.501116,
2003-09-29, 02:56:00,VALID,916.211,VALID,0,VALID,100,VALID,-0.0679233,VALID,19.0598,VALID,11,VALID,0.308117,
2003-09-29, 02:57:00,VALID,916.255,VALID,0,VALID,100,VALID,-0.0679233,VALID,19.0757,VALID,22,VALID,0.446023,
2003-09-29, 02:58:00,VALID,916.279,VALID,0,VALID,100,VALID,-0.0169808,VALID,19.0911,VALID,26,VALID,0.317116,
2003-09-29, 02:59:00,VALID,916.325,VALID,0,VALID,100,VALID,0,VALID,19.1242,VALID,15,VALID,0.646341,
2003-09-29, 03:00:00,VALID,916.34,VALID,0,VALID,100,VALID,-0.0509425,VALID,19.1532,VALID,13,VALID,0.499809,
2003-09-29, 03:01:00,VALID,916.36,VALID,0,VALID,100,VALID,-0.0339617,VALID,19.1728,VALID,13,VALID,0.612723,
2003-09-29, 03:02:00,VALID,916.374,VALID,0,VALID,100,VALID,-0.0509425,VALID,19.1857,VALID,13,VALID,0.601744,
2003-09-29, 03:03:00,VALID,916.385,VALID,0,VALID,100,VALID,0.0679233,VALID,19.1908,VALID,13,VALID,0.589543,
2003-09-29, 03:04:00,VALID,916.389,VALID,0,VALID,100,VALID,0.0679233,VALID,19.1774,VALID,23,VALID,0.835742,
2003-09-29, 03:05:00,VALID,916.381,VALID,0,VALID,100,VALID,0.0679233,VALID,19.1843,VALID,13,VALID,0.558222,
2003-09-29, 03:06:00,VALID,916.373,VALID,0,VALID,100,VALID,0.0339617,VALID,19.1878,VALID,9,VALID,0.745908,
2003-09-29, 03:07:00,VALID,916.351,VALID,0,VALID,100,VALID,0.0169808,VALID,19.2004,VALID,19,VALID,0.895833,
2003-09-29, 03:08:00,VALID,916.347,VALID,0,VALID,100,VALID,0.0339617,VALID,19.2094,VALID,14,VALID,0.740007,
2003-09-29, 03:09:00,VALID,916.354,VALID,0,VALID,100,VALID,0.0339617,VALID,19.2297,VALID,13,VALID,0.639898,
2003-09-29, 03:10:00,VALID,916.357,VALID,0,VALID,100,VALID,0.0509425,VALID,19.236,VALID,11,VALID,0.589749,
2003-09-29, 03:11:00,VALID,916.374,VALID,0,VALID,100,VALID,0.0509425,VALID,19.2355,VALID,12,VALID,0.351385,
2003-09-29, 03:12:00,VALID,916.372,VALID,0,VALID,100,VALID,0.0679233,VALID,19.239,VALID,12,VALID,0.276101,
2003-09-29, 03:13:00,VALID,916.374,VALID,0,VALID,100,VALID,0.101885,VALID,19.2452,VALID,12,VALID,0.434775,
2003-09-29, 03:14:00,VALID,916.352,VALID,0,VALID,100,VALID,0.0849042,VALID,19.2648,VALID,18,VALID,0.689317,
2003-09-29, 03:15:00,VALID,916.341,VALID,0,VALID,100,VALID,0.0509425,VALID,19.2583,VALID,19,VALID,0.807736,
2003-09-29, 03:16:00,VALID,916.316,VALID,0,VALID,100,VALID,0.0679233,VALID,19.2549,VALID,19,VALID,0.640988,
2003-09-29, 03:17:00,VALID,916.298,VALID,0,VALID,100,VALID,0.0849042,VALID,19.2581,VALID,17,VALID,0.864583,
2003-09-29, 03:18:00,VALID,916.281,VALID,0,VALID,100,VALID,0.0169808,VALID,19.2653,VALID,21,VALID,1.30011,
2003-09-29, 03:19:00,VALID,916.278,VALID,0,VALID,100,VALID,0.0169808,VALID,19.269,VALID,14,VALID,1.3323,
2003-09-29, 03:20:00,VALID,916.28,VALID,0,VALID,100,VALID,0.0169808,VALID,19.2687,VALID,20,VALID,1.36974,
2003-09-29, 03:21:00,VALID,916.278,VALID,0,VALID,100,VALID,0,VALID,19.2747,VALID,3,VALID,1.43203,
2003-09-29, 03:22:00,VALID,916.29,VALID,0,VALID,100,VALID,0,VALID,19.2951,VALID,23,VALID,1.35465,
2003-09-29, 03:23:00,VALID,916.275,VALID,0,VALID,100,VALID,0.0169808,VALID,19.3075,VALID,18,VALID,1.0565,
2003-09-29, 03:24:00,VALID,916.27,VALID,0,VALID,100,VALID,0.0169808,VALID,19.3142,VALID,16,VALID,0.950817,
2003-09-29, 03:25:00,VALID,916.25,VALID,0,VALID,100,VALID,0.0169808,VALID,19.3169,VALID,8,VALID,1.03553,
2003-09-29, 03:26:00,VALID,916.232,VALID,0,VALID,100,VALID,0.0169808,VALID,19.3328,VALID,19,VALID,0.968564,
2003-09-29, 03:27:00,VALID,916.219,VALID,0,VALID,100,VALID,0.0169808,VALID,19.3358,VALID,21,VALID,1.17241,
2003-09-29, 03:28:00,VALID,916.194,VALID,0,VALID,100,VALID,0.0169808,VALID,19.3393,VALID,12,VALID,1.05804,
2003-09-29, 03:29:00,VALID,916.182,VALID,0,VALID,100,VALID,0.0169808,VALID,19.3458,VALID,16,VALID,0.866824,
2003-09-29, 03:30:00,VALID,916.178,VALID,0,VALID,100,VALID,0,VALID,19.34,VALID,34,VALID,0.969131,
2003-09-29, 03:31:00,VALID,916.178,VALID,0,VALID,100,VALID,0.0169808,VALID,19.3368,VALID,31,VALID,1.2302,
2003-09-29, 03:32:00,VALID,916.183,VALID,0,VALID,100,VALID,0.0169808,VALID,19.3296,VALID,30,VALID,1.10528,
2003-09-29, 03:33:00,VALID,916.196,VALID,0,VALID,100,VALID,-0.0679233,VALID,19.3338,VALID,22,VALID,1.03543,
2003-09-29, 03:34:00,VALID,916.176,VALID,0,VALID,100,VALID,-0.0509425,VALID,19.3408,VALID,18,VALID,0.656072,
2003-09-29, 03:35:00,VALID,916.183,VALID,0,VALID,100,VALID,-0.0849042,VALID,19.341,VALID,18,VALID,0.403125,
2003-09-29, 03:36:00,VALID,916.194,VALID,0,VALID,100,VALID,-0.101885,VALID,19.344,VALID,18,VALID,0.247796,
2003-09-29, 03:37:00,VALID,916.172,VALID,0,VALID,100,VALID,-0.101885,VALID,19.3601,VALID,19,VALID,0.298147,
2003-09-29, 03:38:00,VALID,916.164,VALID,0,VALID,100,VALID,-0.0849042,VALID,19.3534,VALID,31,VALID,0.933866,
2003-09-29, 03:39:00,VALID,916.152,VALID,0,VALID,100,VALID,-0.0849042,VALID,19.3509,VALID,31,VALID,1.18767,
2003-09-29, 03:40:00,VALID,916.155,VALID,0,VALID,100,VALID,-0.0849042,VALID,19.3472,VALID,23,VALID,1.21633,
2003-09-29, 03:41:00,VALID,916.136,VALID,0,VALID,100,VALID,-0.0679233,VALID,19.3539,VALID,12,VALID,0.740625,
2003-09-29, 03:42:00,VALID,916.129,VALID,0,VALID,100,VALID,-0.0849042,VALID,19.3472,VALID,12,VALID,0.317765,